CAPE
14 2 0 0 6 1 4 2 5 12 4 2 1 1 0 1 2 0 0 0 0 0 0 0 0 0 0 0 0 0 0 0 7 0 0 0 0 0 0 0 0 0 0 0 0 0 0 381 334 158 709 825 112 439
8 3 2 0 0 1 1 0 16 11 3 6 3 0 0 2 2 0 0 0 0 0 0 0 0 0 0 0 0 0 0 0 0 0 0 0 8 0 0 0 0 0 0 0 0 0 251 337 725 796 881 758 317 316
15 18 6 0 0 4 1 1 10 10 15 10 5 3 1 2 0 0 0 0 0 0 0 0 0 0 0 0 0 0 0 0 0 0 0 0 4 1 1 0 0 0 5 95 1 43 68 400 441 485 740 754 427 231
3 2 1 2 0 3 1 1 12 13 12 7 2 1 3 2 4 0 0 0 0 0 0 0 0 0 0 0 0 0 0 0 0 0 0 0 0 0 1 6 0 0 3 41 48 40 61 259 122 148 485 538 456 263
10 0 0 7 0 1 4 6 7 4 7 2 5 6 5 6 1 0 0 0 0 0 0 0 0 0 0 0 0 0 0 0 0 0 0 0 0 0 0 0 12 0 10 38 50 57 15 103 40 9 8 42 83 11
15 0 0 8 1 1 2 3 8 7 3 4 2 2 1 2 2 0 0 0 0 0 0 0 0 0 0 0 0 0 0 0 0 0 0 0 0 0 0 0 61 56 46 55 82 144 113 130 138 89 97 170 90 48
7 1 1 4 3 1 0 2 4 3 2 1 0 0 0 0 0 0 0 0 0 0 0 0 0 0 0 0 0 0 0 0 0 0 0 0 17 20 0 0 14 49 102 110 155 138 75 90 8 204 159 71 32 1
5 3 2 1 2 1 0 1 2 2 0 0 0 0 0 0 0 0 0 0 0 0 0 0 0 0 0 0 5 0 0 0 0 0 0 1 0 12 0 0 0 0 1 126 119 67 16 18 71 209 78 26 22 0
5 5 2 1 1 2 1 1 2 0 0 0 0 0 0 0 0 0 0 0 0 0 0 0 0 1 0 0 0 15 0 0 0 0 0 0 0 0 0 0 0 1 13 77 23 20 31 112 166 188 99 46 37 6
4 9 2 0 0 2 2 2 1 0 0 0 0 0 8 0 0 0 0 0 0 0 0 0 0 0 0 0 0 0 0 4 25 0 0 0 0 0 0 0 0 0 32 0 0 0 0 2 79 142 102 84 60 12
5 3 1 0 0 1 3 2 0 0 0 0 0 0 0 0 0 0 1 0 0 0 0 0 0 0 0 0 0 0 0 0 1 8 1 0 0 6 0 0 2 4 0 0 0 0 0 0 0 13 79 58 34 21
7 4 1 0 0 0 2 0 0 0 0 0 1 0 0 0 0 0 0 0 0 6 5 0 7 0 0 0 0 0 0 0 0 0 27 3 25 0 0 0 0 20 35 13 0 0 0 7 0 0 32 39 36 3
6 4 0 0 0 0 1 0 0 0 0 0 0 0 0 1 0 0 2 14 3 11 13 9 0 2 0 0 0 0 0 0 0 13 30 11 0 0 0 0 0 0 10 33 15 0 0 13 3 58 95 62 23 21
3 1 0 0 0 0 0 0 0 0 0 0 0 0 0 0 0 0 0 2 3 2 0 0 2 1 0 0 3 4 0 0 5 8 0 0 0 0 0 0 0 0 3 27 60 2 15 5 42 151 154 97 54 27
0 0 0 0 0 0 0 0 0 0 0 0 0 0 0 0 0 0 0 0 1 0 0 0 0 0 0 0 5 4 0 0 1 1 1 11 0 0 0 0 0 0 16 24 90 24 53 77 86 60 46 28 27 8
1 0 0 0 0 0 0 0 0 0 0 0 0 0 0 0 0 1 0 2 1 0 0 0 0 0 0 0 1 1 0 7 2 0 0 0 0 0 0 0 0 0 1 15 28 31 110 193 88 9 2 0 0 0
0 0 0 0 0 0 0 0 0 0 0 0 0 0 0 0 0 0 4 22 15 3 0 0 0 0 0 1 0 7 1 0 0 0 0 0 0 0 0 0 2 0 0 0 49 109 66 1 0 0 0 0 0 0
0 0 0 0 0 0 0 0 0 0 0 0 0 0 0 0 6 2 0 0 0 5 15 4 0 2 0 1 1 1 0 0 0 1 1 1 1 0 1 3 2 3 0 1 2 1 1 0 0 0 0 0 0 0
0 0 0 0 0 0 0 0 0 0 0 0 0 0 4 0 0 0 0 1 0 0 0 1 0 0 3 1 0 0 0 1 1 0 2 1 1 0 2 1 2 2 1 1 2 3 3 3 2 1 1 1 0 1
0 0 0 0 0 0 0 0 0 0 0 0 0 0 0 0 0 0 0 0 0 0 0 1 1 2 2 1 0 1 1 1 2 1 2 2 2 2 2 1 1 3 3 2 2 2 2 2 1 1 1 1 1 1
0 0 0 0 0 0 0 0 0 0 0 0 0 0 0 0 0 1 1 0 0 0 0 0 0 0 0 0 0 1 0 1 1 1 2 2 3 3 3 2 2 2 2 2 0 1 0 1 1 0 0 0 0 0
0 0 0 0 0 0 0 0 0 0 0 0 0 0 0 1 1 1 1 0 0 0 0 1 0 0 0 0 0 3 3 2 2 3 3 2 3 3 3 2 2 2 2 1 0 0 0 0 0 0 0 0 1 1
0 0 0 0 0 0 0 0 0 0 0 1 0 1 1 3 2 0 1 1 0 0 1 0 0 0 0 1 2 1 1 0 2 3 3 2 2 1 1 0 0 0 0 0 0 0 0 0 0 0 0 0 3 8
0 0 0 0 0 0 0 0 0 1 1 1 1 0 1 2 0 1 0 2 0 1 1 1 1 2 2 1 3 3 2 1 1 1 1 0 1 2 1 1 0 0 0 0 0 0 0 0 0 0 0 0 0 0
0 0 0 0 0 0 0 0 1 1 0 2 0 0 0 1 0 0 0 0 0 1 1 1 1 2 1 1 2 1 1 0 0 0 1 0 0 0 0 0 0 0 0 0 0 0 0 0 0 0 0 0 0 0
0 0 0 0 0 1 0 0 0 1 2 1 1 2 1 1 0 0 1 0 0 0 0 0 1 6 3 0 1 0 0 0 0 0 0 0 0 0 0 0 0 0 0 0 0 0 0 0 0 0 0 0 0 0
1 1 1 0 1 1 1 1 1 0 0 1 1 1 0 0 0 0 0 0 0 0 0 0 0 0 0 1 0 0 0 0 0 0 0 0 0 0 0 0 0 0 0 0 0 0 0 0 0 0 0 0 0 0
1 0 0 1 1 1 0 0 0 0 0 0 0 0 0 0 1 0 0 0 0 0 0 0 0 0 0 0 0 0 0 0 0 0 0 0 0 0 0 0 0 0 0 0 0 0 0 0 0 0 0 0 0 0
0 0 0 0 0 0 8 1 0 0 0 0 0 0 0 0 0 0 0 0 0 0 0 0 0 0 0 0 0 0 0 0 0 0 0 0 0 0 0 0 0 0 0 0 0 0 0 0 0 0 0 0 0 0
4 0 2 0 0 0 0 1 0 1 0 0 0 0 0 0 0 0 0 0 0 0 0 0 0 0 0 0 0 0 0 0 0 0 0 0 0 0 0 0 0 0 0 0 0 0 0 0 0 0 0 0 0 0
4 0 2 4 1 2 6 10 8 3 1 0 0 0 0 0 0 0 0 0 0 0 0 0 0 0 0 0 0 0 0 0 0 0 0 0 0 0 0 0 0 0 0 0 0 0 0 0 0 0 0 0 0 0
11 5 2 1 15 4 0 0 0 0 0 0 0 0 0 0 0 0 0 0 0 0 0 0 0 0 0 0 0 0 0 0 0 0 0 0 0 0 0 0 0 0 0 0 0 0 0 0 0 0 0 0 0 0
0 0 0 0 13 16 13 16 20 20 4 2 3 2 1 2 0 6 2 0 0 0 0 0 0 0 0 0 0 0 0 0 0 0 0 0 0 0 0 0 0 0 0 0 0 0 0 0 0 0 0 0 0 0
CIN
-2 -4 -0 -0 -0 -0 -0 -0 -0 -0 -1 -0 -0 -0 -0 -0 -0 -0 -0 -0 -0 -0 -0 -0 -0 -0 -0 -0 -0 -0 -0 -0 -115 -0 -0 -0 -0 -0 -0 -0 -0 -0 -0 -0 -0 -0 -0 -199 -102 -20 -130 -208 -257 -234
-0 -3 -2 -0 -0 -0 -0 -0 -0 -1 -1 -0 -0 -0 -0 -0 -0 -0 -0 -0 -0 -0 -0 -0 -0 -0 -0 -0 -0 -0 -0 -0 -0 -0 -0 -0 -62 -0 -0 -0 -0 -0 -0 -0 -0 -0 -172 -234 -196 -210 -212 -139 -223 -256
-0 -0 -0 -0 -0 -0 -0 -0 -0 -0 -0 -0 -1 -1 -0 -0 -0 -0 -0 -0 -0 -0 -0 -0 -0 -0 -0 -0 -0 -0 -0 -0 -0 -0 -0 -0 -95 -23 -12 -2 -0 -0 -77 -75 -3 -127 -184 -153 -201 -219 -193 -142 -265 -289
-5 -4 -1 -0 -0 -0 -0 -0 -0 -0 -0 -1 -0 -0 -0 -0 -0 -0 -0 -0 -0 -0 -0 -0 -0 -0 -0 -0 -0 -0 -0 -0 -0 -0 -0 -0 -0 -0 -29 -54 -0 -0 -26 -102 -111 -126 -137 -122 -198 -229 -160 -202 -237 -294
-0 -0 -0 -0 -0 -0 -0 -0 -0 -0 -0 -1 -0 -0 -0 -0 -0 -0 -0 -0 -0 -0 -0 -0 -0 -0 -0 -0 -0 -0 -0 -0 -0 -0 -0 -0 -0 -0 -0 -0 -76 -10 -126 -82 -60 -117 -105 -96 -179 -195 -53 -187 -217 -91
-2 -0 -0 -0 -0 -0 -0 -0 -0 -0 -0 -0 -0 -0 -0 -0 -0 -0 -0 -0 -0 -0 -0 -0 -0 -0 -0 -0 -0 -0 -0 -0 -0 -0 -0 -0 -0 -0 -0 -0 -53 -64 -100 -118 -56 -87 -116 -108 -128 -178 -172 -199 -263 -282
-0 -0 -0 -0 -0 -0 -0 -0 -0 -0 -0 -0 -0 -0 -0 -0 -0 -0 -0 -0 -0 -0 -0 -0 -0 -0 -0 -0 -0 -0 -0 -0 -0 -0 -0 -0 -56 -36 -0 -0 -63 -65 -63 -74 -71 -55 -55 -86 -88 -124 -137 -185 -227 -116
-0 -0 -0 -0 -0 -0 -0 -0 -0 -0 -0 -0 -0 -0 -0 -0 -0 -0 -0 -0 -0 -0 -10 -0 -0 -0 -0 -0 -20 -0 -0 -0 -0 -0 -0 -28 -3 -32 -0 -0 -0 -0 -19 -55 -75 -105 -100 -115 -132 -127 -185 -182 -186 -56
-0 -0 -0 -0 -0 -0 -0 -0 -0 -0 -0 -0 -0 -0 -0 -0 -0 -0 -0 -0 -0 -0 -0 -1 -0 -10 -0 -0 -0 -60 -0 -0 -0 -0 -0 -0 -0 -0 -0 -0 -0 -42 -33 -24 -89 -114 -117 -81 -85 -117 -159 -178 -168 -245
-0 -0 -0 -0 -0 -0 -0 -0 -0 -0 -0 -0 -0 -0 -15 -0 -0 -0 -0 -0 -0 -0 -0 -0 -0 -0 -0 -0 -0 -0 -0 -36 -32 -2 -0 -0 -0 -0 -2 -0 -0 -0 -21 -0 -0 -0 -0 -90 -48 -55 -94 -110 -125 -206
-0 -0 -0 -0 -0 -0 -0 -0 -0 -0 -0 -0 -0 -0 -0 -0 -0 -0 -2 -0 -0 -0 -0 -0 -0 -0 -0 -0 -0 -0 -0 -18 -4 -18 -4 -0 -0 -52 -16 -0 -43 -36 -0 -0 -0 -0 -0 -0 -0 -39 -61 -80 -101 -157
-0 -0 -0 -0 -0 -0 -0 -0 -0 -0 -0 -0 -0 -0 -0 -0 -2 -3 -0 -0 -0 -5 -15 -4 -12 -0 -0 -0 -0 -0 -0 -0 -0 -7 -30 -16 -18 -0 -0 -0 -0 -159 -159 -121 -0 -0 -0 -58 -0 -0 -117 -119 -99 -23
-0 -0 -0 -0 -0 -0 -0 -0 -0 -0 -0 -0 -0 -0 -0 -7 -0 -0 -0 -0 -0 -5 -13 -15 -2 -17 -0 -0 -0 -0 -0 -0 -0 -35 -13 -6 -0 -0 -0 -0 -0 -0 -205 -187 -134 -0 -0 -65 -32 -123 -108 -102 -110 -119
-3 -0 -0 -0 -0 -0 -0 -0 -0 -0 -0 -0 -0 -0 -0 -0 -0 -0 -0 -14 -7 -8 -2 -2 -19 -17 -0 -0 -11 -0 -0 -0 -15 -8 -0 -0 -0 -0 -0 -0 -0 -0 -112 -211 -177 -125 -49 -57 -83 -133 -127 -118 -115 -125
-0 -0 -0 -0 -0 -0 -0 -0 -0 -0 -0 -0 -0 -0 -0 -0 -0 -0 -0 -0 -17 -0 -0 -11 -0 -0 -0 -0 -13 -7 -2 -0 -0 -0 -2 -2 -0 -0 -0 -0 -0 -0 -202 -235 -216 -140 -102 -109 -143 -177 -177 -139 -106 -132
-2 -0 -0 -0 -0 -0 -0 -0 -0 -0 -0 -0 -0 -0 -0 -0 -0 -13 -0 -15 -31 -1 -4 -0 -0 -0 -1 -1 -10 -6 -0 -0 -0 -0 -2 -0 -0 -0 -0 -0 -0 -23 -76 -218 -239 -188 -125 -107 -127 -53 -65 -0 -0 -0
-0 -0 -0 -0 -0 -0 -0 -0 -0 -0 -0 -0 -0 -0 -0 -0 -0 -0 -49 -36 -66 -33 -0 -0 -0 -0 -4 -0 -0 -8 -0 -0 -0 -0 -0 -0 -0 -0 -0 -0 -0 -0 -0 -0 -249 -203 -201 -43 -0 -0 -0 -0 -0 -0
-0 -0 -0 -0 -0 -0 -0 -0 -0 -0 -0 -0 -0 -0 -0 -14 -36 -53 -0 -0 -0 -19 -18 -12 -7 -2 -0 -0 -0 -0 -0 -0 -0 -0 -0 -0 -0 -0 -0 -1 -0 -0 -0 -0 -0 -0 -0 -0 -0 -0 -0 -0 -0 -0
-0 -0 -0 -0 -0 -0 -0 -0 -0 -0 -0 -0 -0 -0 -42 -18 -0 -0 -0 -2 -0 -0 -0 -13 -0 -0 -1 -2 -0 -0 -0 -0 -0 -0 -0 -0 -0 -0 -0 -0 -0 -0 -0 -0 -0 -0 -0 -0 -0 -0 -0 -0 -0 -0
-0 -0 -0 -0 -0 -0 -0 -0 -0 -0 -0 -0 -0 -0 -0 -0 -0 -11 -0 -0 -0 -0 -1 -8 -0 -0 -0 -0 -0 -0 -0 -0 -0 -0 -0 -0 -0 -0 -0 -0 -0 -0 -0 -0 -0 -0 -0 -0 -0 -0 -0 -0 -0 -0
-0 -0 -0 -0 -0 -0 -0 -0 -0 -0 -0 -0 -0 -0 -0 -0 -0 -0 -0 -0 -0 -0 -0 -0 -0 -0 -0 -0 -0 -0 -0 -0 -0 -0 -0 -0 -0 -0 -0 -0 -0 -0 -0 -0 -0 -0 -0 -0 -0 -0 -0 -0 -0 -0
-0 -0 -0 -0 -0 -0 -0 -0 -0 -0 -0 -0 -0 -0 -0 -0 -0 -0 -0 -0 -0 -0 -0 -0 -0 -0 -0 -0 -0 -0 -0 -0 -0 -0 -0 -0 -0 -0 -0 -0 -0 -0 -0 -0 -0 -0 -0 -0 -0 -0 -0 -18 -23 -19
-0 -0 -0 -0 -0 -0 -0 -0 -0 -0 -0 -0 -0 -0 -0 -0 -0 -0 -0 -0 -0 -0 -0 -0 -0 -0 -0 -0 -0 -0 -0 -0 -0 -0 -0 -0 -0 -0 -0 -0 -0 -0 -0 -0 -0 -0 -0 -0 -0 -0 -0 -0 -12 -10
-0 -0 -0 -0 -3 -0 -0 -0 -0 -0 -0 -0 -0 -0 -0 -0 -0 -0 -0 -0 -0 -0 -1 -0 -0 -1 -0 -0 -8 -0 -0 -0 -0 -0 -1 -0 -0 -0 -0 -0 -0 -0 -5 -0 -10 -0 -0 -41 -6 -0 -0 -0 -0 -3
-0 -0 -0 -0 -1 -0 -0 -0 -0 -0 -0 -0 -0 -0 -0 -0 -0 -0 -0 -0 -0 -0 -0 -0 -0 -0 -10 -0 -11 -0 -0 -0 -0 -0 -0 -0 -0 -0 -0 -0 -0 -0 -0 -0 -0 -0 -0 -0 -0 -0 -0 -0 -0 -0
-0 -0 -0 -0 -0 -0 -0 -0 -0 -0 -0 -0 -0 -0 -0 -0 -0 -0 -0 -0 -0 -0 -0 -0 -0 -9 -9 -5 -8 -0 -0 -0 -0 -0 -0 -0 -0 -0 -0 -36 -0 -0 -0 -0 -0 -0 -0 -0 -0 -0 -0 -0 -0 -0
-0 -0 -0 -0 -0 -0 -0 -0 -0 -0 -0 -0 -0 -0 -0 -0 -0 -0 -0 -0 -0 -0 -0 -0 -8 -0 -10 -5 -10 -0 -0 -0 -0 -0 -0 -20 -0 -0 -0 -0 -0 -0 -0 -0 -0 -0 -0 -0 -0 -0 -0 -0 -0 -0
-0 -0 -0 -0 -0 -0 -0 -0 -0 -4 -0 -0 -0 -0 -0 -0 -2 -0 -0 -0 -0 -0 -0 -0 -8 -0 -0 -0 -0 -0 -0 -0 -0 -0 -0 -0 -0 -1 -0 -0 -0 -0 -0 -0 -0 -0 -0 -0 -0 -0 -0 -0 -0 -0
-0 -0 -0 -0 -0 -0 -1 -1 -0 -0 -0 -0 -0 -0 -0 -0 -0 -0 -0 -0 -0 -0 -0 -0 -0 -0 -0 -0 -0 -0 -0 -0 -0 -0 -0 -0 -0 -0 -0 -0 -0 -0 -0 -0 -0 -0 -0 -0 -0 -0 -0 -0 -0 -0
-2 -0 -0 -0 -0 -0 -0 -8 -4 -12 -0 -0 -0 -0 -0 -0 -0 -0 -0 -0 -0 -0 -0 -0 -0 -0 -0 -0 -0 -0 -0 -0 -0 -0 -0 -0 -0 -0 -0 -0 -0 -0 -0 -0 -0 -0 -0 -0 -0 -0 -0 -0 -0 -0
-5 -2 -0 -0 -0 -7 -12 -15 -19 -21 -33 -0 -0 -0 -0 -0 -0 -0 -0 -0 -0 -0 -0 -0 -0 -0 -0 -0 -0 -0 -0 -0 -0 -0 -0 -0 -0 -0 -0 -0 -0 -0 -0 -0 -0 -0 -0 -0 -0 -0 -0 -0 -0 -0
-1 -0 -6 -3 -2 -6 -0 -0 -0 -0 -0 -0 -0 -0 -0 -0 -0 -0 -0 -0 -0 -0 -0 -0 -0 -0 -0 -0 -0 -0 -0 -0 -0 -0 -0 -0 -0 -0 -0 -0 -0 -0 -0 -0 -0 -0 -0 -0 -0 -0 -0 -0 -0 -0
-0 -0 -0 -1 -6 -1 -2 -8 -8 -7 -18 -17 -19 -29 -42 -29 -0 -9 -46 -0 -0 -0 -0 -0 -0 -0 -0 -0 -0 -0 -0 -0 -0 -0 -0 -0 -0 -0 -0 -0 -0 -0 -0 -0 -0 -0 -0 -0 -0 -0 -0 -0 -0 -0
Wind_Speed
24 23 25 25 24 26 25 25 25 25 24 24 23 23 22 22 21 20 19 18 18 21 26 23 22 23 24 24 26 27 26 25 26 27 28 29 29 27 27 25 26 28 30 31 29 29 35 25 22 21 17 17 10 8
26 26 26 26 26 25 25 24 25 24 24 24 23 23 22 22 21 19 20 20 21 21 23 22 26 29 24 23 22 23 23 23 21 25 26 27 29 26 27 32 25 30 26 28 29 29 25 24 19 17 13 11 10 6
26 27 26 26 26 25 24 24 24 24 24 23 23 23 23 22 21 20 20 20 20 21 23 21 19 17 19 20 19 23 23 21 20 19 22 26 29 27 29 28 26 24 22 23 23 24 23 22 20 17 12 9 6 4
24 23 25 26 25 25 24 24 25 24 24 23 23 23 23 22 22 21 20 19 18 19 19 18 19 19 15 16 12 13 18 19 20 21 22 24 28 24 28 28 27 24 22 22 22 19 19 18 17 16 11 7 6 4
24 24 26 26 26 25 24 24 24 24 24 24 24 24 23 23 22 21 20 19 18 17 19 21 21 14 21 13 10 9 19 24 25 25 27 29 24 25 26 27 27 24 24 23 22 18 19 18 16 17 14 10 6 5
23 25 28 25 25 25 25 24 24 24 25 25 25 24 23 22 20 18 17 16 10 15 19 19 19 18 20 17 7 8 14 21 22 23 25 24 24 24 27 28 22 20 19 17 19 17 18 16 14 15 15 14 12 9
21 24 25 25 25 25 25 25 25 25 25 25 25 24 23 22 18 17 17 16 15 14 18 20 19 17 19 16 12 13 13 18 22 24 27 25 22 22 25 29 23 22 22 20 15 13 16 17 18 14 14 13 11 9
22 24 24 25 24 24 24 25 25 25 26 25 25 23 21 18 18 18 18 17 8 17 17 18 18 18 17 15 14 14 13 16 22 25 22 24 24 24 30 28 27 27 27 23 21 20 22 21 20 15 11 9 7 7
23 24 25 24 24 24 24 24 25 25 26 26 25 21 15 16 17 18 16 13 12 16 18 16 15 13 18 16 17 16 12 10 17 24 33 26 24 26 26 22 22 25 23 23 23 23 22 23 20 18 13 11 9 8
26 25 25 25 24 23 23 23 24 24 24 18 14 16 17 17 17 12 16 15 15 15 14 15 13 14 16 18 17 18 16 12 16 20 16 27 29 26 25 27 29 24 21 22 24 26 26 25 23 21 17 15 15 11
26 24 24 25 24 23 22 21 21 21 16 15 16 16 18 17 17 16 16 15 14 15 12 12 10 14 15 17 18 15 17 19 19 16 18 20 20 23 26 24 25 29 31 31 27 26 24 24 22 20 20 18 14 10
26 25 24 24 23 22 21 20 18 15 15 18 18 18 17 16 16 16 15 14 13 14 12 13 14 12 16 16 16 15 14 17 20 19 14 16 18 21 22 24 24 25 27 30 28 26 23 19 20 22 17 15 13 10
25 25 24 23 23 21 20 19 18 18 18 15 16 16 15 15 15 15 14 13 16 16 15 15 18 16 16 17 17 16 17 19 20 21 18 15 18 21 23 25 26 26 26 26 26 22 20 19 18 15 13 12 8 7
25 24 23 22 22 21 20 19 17 16 15 16 16 16 16 16 16 13 14 14 14 13 8 19 18 17 18 17 18 18 19 18 19 19 19 19 21 25 26 27 26 28 28 27 25 16 13 15 14 12 9 8 7 7
25 23 23 23 22 21 20 19 18 16 16 17 16 18 18 18 18 20 19 17 15 18 18 17 20 20 19 19 18 18 18 19 18 18 14 20 22 23 25 25 27 28 27 24 22 10 10 10 8 9 9 6 6 7
21 20 22 23 23 21 19 18 17 16 17 17 18 17 17 17 17 16 15 16 18 18 17 15 12 18 19 18 19 20 19 18 16 18 20 22 24 24 27 27 27 27 23 20 10 1 1 3 4 8 7 10 9 6
17 19 18 22 22 19 18 16 17 18 18 17 17 18 20 19 20 18 16 16 17 17 16 14 12 19 18 18 20 18 17 16 21 22 22 23 23 22 21 20 20 13 11 11 5 9 9 12 4 10 7 10 7 5
18 17 13 12 14 16 16 18 18 18 19 18 16 14 13 13 15 17 18 19 19 19 18 18 18 19 19 19 19 18 19 21 21 20 21 21 20 19 19 15 10 8 7 6 4 5 8 3 4 3 3 2 4 6
18 17 14 14 15 16 17 19 19 20 19 16 16 14 15 15 16 18 18 18 18 17 18 18 19 19 19 19 19 21 22 22 21 20 18 17 17 17 8 8 11 9 5 3 3 2 2 2 4 4 6 8 9 9
17 16 16 15 15 16 17 19 19 18 17 17 15 15 16 17 17 17 17 17 18 18 19 19 19 18 19 21 21 21 20 19 18 15 13 10 9 8 12 14 11 10 8 3 3 4 5 6 6 8 9 10 10 10
15 17 17 15 15 16 17 17 17 18 17 17 16 16 17 16 15 15 16 17 17 18 19 20 20 22 22 21 18 15 15 12 9 19 9 10 9 9 9 11 14 10 8 6 7 7 8 10 12 12 12 12 11 11
17 18 16 16 15 15 17 17 17 16 16 16 15 14 15 14 14 15 16 15 17 18 19 19 18 17 16 15 13 12 6 11 10 11 13 4 3 2 2 3 13 12 9 9 11 12 13 13 15 17 18 17 14 12
17 16 16 16 17 15 17 15 16 14 15 15 13 13 13 11 10 11 12 11 13 12 14 16 15 15 16 7 6 5 3 4 4 4 4 7 8 7 9 9 10 18 19 14 11 13 14 18 23 25 25 13 20 16
15 15 16 17 16 17 15 15 14 15 15 15 14 15 11 11 8 11 13 10 7 8 10 9 10 1 5 6 3 6 11 17 24 18 23 26 18 13 13 14 15 17 22 28 11 15 23 24 25 24 24 22 20 19
16 16 16 17 16 16 16 16 16 16 16 17 18 15 12 10 9 10 11 9 5 3 4 5 7 7 7 9 9 12 14 20 21 10 17 22 19 11 10 9 8 15 24 28 27 26 25 24 23 22 21 20 19 18
17 15 16 17 17 17 18 18 16 16 19 20 17 16 14 13 12 14 11 8 10 10 10 13 20 21 18 16 14 12 14 15 6 9 9 17 23 29 26 23 21 3 10 27 25 23 22 21 21 21 20 20 20 20
16 16 16 15 17 17 17 17 16 18 20 19 18 15 13 13 13 14 14 13 15 11 12 15 17 20 25 14 13 13 13 11 5 11 16 16 17 21 26 22 20 18 21 21 21 21 20 20 20 21 21 21 21 20
15 16 18 18 17 17 16 17 17 20 20 20 18 16 19 20 18 19 21 16 15 13 17 19 18 17 19 25 26 5 8 10 7 11 13 10 9 14 21 22 23 22 21 21 21 21 21 20 21 21 20 21 21 19
14 16 18 17 17 16 13 14 16 19 21 21 21 19 17 18 16 15 15 16 17 24 28 32 27 19 5 8 9 3 7 23 18 16 17 17 17 17 18 20 20 19 19 21 20 19 20 20 20 21 21 21 23 23
9 17 12 8 13 14 12 15 15 17 18 20 20 18 15 14 14 14 11 2 8 8 2 22 25 24 23 22 18 7 7 21 20 19 17 18 19 20 20 20 19 20 20 19 18 18 18 18 19 20 21 21 22 22
19 17 15 12 11 14 13 10 6 6 5 5 5 4 2 5 2 2 8 7 20 20 18 17 15 17 17 17 18 17 16 16 18 19 19 19 19 18 18 17 17 17 17 18 17 18 19 19 19 20 21 22 23 23
16 15 17 12 11 14 13 11 9 7 3 6 8 9 9 9 6 6 8 15 17 19 17 16 16 16 16 16 16 17 18 17 17 17 17 17 17 16 17 17 17 17 17 18 18 18 18 19 19 20 21 22 22 23
15 11 10 9 10 8 10 9 5 4 2 5 6 8 7 7 9 8 9 10 16 17 16 15 16 16 17 18 18 18 18 19 19 18 16 16 15 16 16 17 17 17 17 18 18 19 19 19 20 20 21 22 22 22
Wind_Direction
305 305 304 305 302 297 296 297 296 298 301 301 300 300 301 301 300 295 284 302 300 293 285 286 282 276 277 280 273 277 273 274 272 265 263 261 262 264 264 267 267 266 265 266 268 270 264 291 291 294 304 305 303 295
296 296 296 299 297 295 293 293 293 297 296 296 296 295 295 297 293 293 276 284 294 293 287 296 282 274 278 280 283 281 273 273 276 268 268 266 262 267 265 260 272 266 272 269 269 270 282 285 291 299 309 321 306 298
298 288 292 293 292 289 289 289 291 291 290 291 292 292 290 291 288 280 272 277 288 293 290 297 294 296 290 281 280 276 276 275 276 282 273 267 263 267 262 264 269 273 278 274 274 277 283 283 286 298 312 327 333 335
305 298 290 288 286 285 285 285 285 286 286 289 289 288 286 284 281 272 258 260 276 284 296 291 284 286 306 308 292 265 281 284 281 278 275 272 265 277 265 267 268 272 277 271 274 277 287 288 289 296 311 323 322 352
299 298 289 282 281 280 281 282 284 283 282 284 285 284 283 280 279 272 255 248 215 289 289 270 267 305 282 332 319 289 274 275 276 271 267 266 276 275 273 269 266 271 269 270 271 276 278 282 286 289 295 308 317 323
300 292 284 281 278 276 275 277 280 281 280 280 280 281 280 278 277 281 287 299 41 342 301 289 302 302 308 340 346 303 288 279 273 271 270 270 268 276 267 261 268 272 276 278 273 280 282 287 293 294 295 300 304 313
304 292 287 281 276 274 272 273 277 278 278 277 277 278 277 274 280 273 286 315 341 358 315 292 297 327 322 339 337 314 303 289 275 269 265 266 271 262 266 260 268 277 275 273 279 285 282 282 287 300 301 306 309 308
298 285 280 276 274 272 271 272 275 275 274 273 273 275 276 282 283 275 280 178 36 326 327 315 313 305 317 347 346 338 323 302 276 264 267 265 261 265 263 266 271 269 271 269 273 281 281 282 285 292 306 311 326 308
287 277 274 273 273 272 271 272 274 274 271 267 260 266 293 290 290 294 317 356 2 339 314 325 324 337 306 345 325 329 353 345 292 264 249 256 257 258 271 267 271 276 271 268 272 277 281 281 280 281 283 287 289 293
271 268 268 267 268 271 272 273 275 275 272 271 280 277 278 288 289 323 304 319 329 335 344 331 343 340 329 332 335 319 326 333 301 270 272 254 257 266 277 271 266 275 267 276 276 277 277 277 275 276 272 277 281 286
262 263 261 260 262 267 271 273 276 278 277 275 270 273 274 278 281 289 304 313 332 330 19 18 27 345 352 337 322 325 303 259 262 283 269 267 267 276 274 285 280 272 271 272 275 281 283 277 273 278 273 271 273 276
253 252 253 253 255 261 267 269 275 274 272 264 263 267 270 278 282 290 298 315 330 322 6 7 7 36 346 341 329 326 317 282 245 259 284 272 276 281 280 282 282 281 282 276 275 277 284 280 278 280 273 264 265 272
246 244 247 248 247 253 259 263 264 264 260 265 260 262 269 273 276 282 292 313 298 305 328 341 329 337 330 323 297 304 243 184 244 236 243 277 289 297 293 294 286 287 289 290 279 275 278 278 283 281 276 262 257 255
236 238 240 246 244 245 251 254 260 260 252 247 250 249 258 263 266 279 290 306 323 19 21 271 305 310 300 276 252 229 215 216 200 215 231 238 274 285 293 297 295 289 290 291 285 277 268 275 283 283 272 260 252 257
224 227 229 232 232 236 241 244 249 248 242 239 244 240 242 243 249 246 261 272 309 262 240 232 280 265 250 244 242 226 209 201 191 201 247 269 262 268 274 273 273 276 281 288 283 270 267 277 289 294 291 280 274 280
216 222 222 219 221 225 233 242 239 239 237 241 241 239 247 247 258 266 280 288 268 257 233 360 276 260 249 249 230 214 213 221 242 257 263 266 266 262 268 268 266 256 269 286 304 193 218 284 299 275 285 274 284 288
210 216 223 213 212 221 229 231 230 228 229 232 233 237 235 238 226 245 270 270 266 258 320 9 322 243 253 232 221 228 233 230 261 266 265 263 263 260 256 259 250 290 310 330 355 244 235 233 326 347 260 258 288 318
207 210 221 224 220 221 226 225 224 223 217 221 233 255 250 264 259 258 263 267 271 286 285 254 233 239 231 227 228 241 252 261 264 263 263 259 249 240 246 269 333 324 301 287 323 259 240 277 335 289 284 337 347 347
203 209 216 220 218 218 218 217 215 211 217 231 233 253 253 266 273 257 257 265 257 242 235 235 215 217 223 235 241 255 260 263 263 269 259 256 239 216 319 356 15 359 6 311 281 287 337 347 31 35 36 36 39 34
196 207 211 216 221 215 213 210 214 216 224 230 244 252 252 258 248 244 250 257 236 220 205 206 199 215 233 247 252 255 254 254 246 220 249 310 349 8 44 46 31 31 44 63 46 38 38 22 8 20 28 40 46 47
202 202 206 212 216 213 208 211 215 218 224 230 243 254 239 239 238 247 253 261 236 218 216 226 235 246 246 247 240 227 244 225 265 101 226 358 2 28 30 39 49 40 41 37 37 25 30 32 37 40 45 42 49 56
190 192 202 208 209 209 206 208 210 220 222 230 237 230 220 231 235 240 252 248 242 240 236 236 231 228 223 220 229 196 285 3 4 13 13 0 52 57 93 71 53 51 45 46 54 53 49 50 57 60 62 61 55 49
185 195 199 200 198 201 198 211 206 217 207 206 214 211 205 211 225 228 201 200 194 206 215 208 210 205 181 183 7 348 325 14 31 36 58 60 69 73 64 58 57 62 66 63 66 66 64 63 70 77 82 45 65 51
191 194 192 191 192 191 201 197 201 195 193 190 186 181 187 183 197 166 159 167 187 209 193 195 189 128 31 37 85 143 149 143 134 132 134 133 134 127 132 138 140 143 143 135 75 66 66 66 69 67 67 63 56 52
182 186 186 183 191 189 187 185 183 181 174 172 169 170 174 180 168 155 150 150 149 144 148 161 154 146 120 137 139 144 147 145 141 112 143 140 139 115 93 102 119 144 138 70 70 69 66 64 59 57 53 48 41 40
175 182 182 184 185 184 182 177 179 175 170 168 168 168 166 159 157 153 155 153 146 137 140 142 143 145 148 147 143 140 149 153 129 66 159 156 146 78 72 63 57 102 166 76 69 65 62 53 48 47 46 39 39 37
173 178 183 188 185 180 180 179 180 175 172 172 173 173 174 165 159 162 162 161 149 142 145 148 148 147 146 156 157 155 155 154 137 159 162 163 161 147 86 68 58 69 71 57 55 56 55 53 54 53 51 50 51 52
177 181 175 175 179 179 176 177 179 173 173 175 172 175 165 160 158 154 151 159 157 161 150 147 148 149 150 144 142 74 167 166 160 50 42 30 18 31 53 58 62 60 55 59 58 59 57 59 61 65 59 45 42 50
182 179 177 184 186 190 198 194 188 184 173 167 158 159 163 164 165 166 165 166 166 155 90 106 136 66 160 172 174 183 32 65 55 47 43 41 39 38 39 51 50 49 53 60 46 41 45 47 44 44 44 39 30 28
163 158 162 165 171 167 173 177 169 167 167 164 162 166 173 175 175 174 174 115 47 45 124 82 96 86 79 75 59 359 236 82 57 53 40 42 54 67 70 59 51 49 50 47 40 33 29 27 27 30 31 29 28 27
150 150 153 154 151 154 150 152 149 146 141 133 150 77 110 181 177 177 48 39 55 57 53 46 43 50 53 54 53 49 41 35 51 53 51 48 44 45 40 37 37 43 41 23 36 30 33 34 34 30 27 25 24 25
163 163 158 158 161 170 174 172 173 170 151 47 39 38 42 40 16 264 254 45 51 56 47 45 38 33 41 41 41 47 52 49 41 39 41 41 34 28 26 29 29 29 27 26 25 28 30 31 30 28 25 26 28 28
170 182 187 185 182 183 190 194 203 222 338 12 7 11 355 349 360 302 283 329 56 66 61 50 53 55 56 56 55 52 48 42 36 31 27 24 21 20 18 16 13 13 17 19 23 30 31 30 30 32 32 29 30 32